Location: Unspecified
(49.2170°N, 0.0000°E)
Time: 14:58:32
(UTC+00:00)

SR - Pass Details

Date: 26 January 2021
Orbit: 573 x 882 km, 66.7° (Epoch: 05 March)

Event Time Altitude Azimuth Distance (km) Brightness Sun altitude
Exits shadow 03:54:08 26° 62° (ENE) 1,438 ? -36.4°
Drops below altitude 10° 03:56:42 10° 46° (NE) 2,311 ? -36.0°
Sets 03:59:19 0° 40° (NE) 3,294 ? -35.6°
